Content
SEND FEEDBACK

Daily
Averages
Monthly
Summary
Canada

SUDBURY, ONTARIO


Home > North America > Canada > Ontario
Elevation: 1140 feet     Latitude: 46 37N     Longitude: 080 48W

WEATHER
 
SELECT A DAY
Number of Records: 184,240;   Date Range: 1/1/95 - 9/17/14
 
SHARE

PRINT THIS DATA

[ ← Previous Day ]
WEATHER ALMANAC - FEBRUARY 11, 2013
[ Next Day → ]
[ °C ]   °F
Weather ElementAverageHighLow
Temperature15.8 °F33.8 °F (2:00 pm) (12:32 am)
Dewpoint14.5 °F32 °F (1:00 pm) (7:00 pm)
Humidity90.3 %100 % (1:00 pm)77 % (1:00 am)
Wind Speed14.2 mph18.4 mph (5:00 am)
Wind Gust25.3 mph (2:28 pm)
Weather ElementAverage
Visibility2.8 mi
Wind Direction (540.2 °)

Weather ElementTotal
Precipitation---
Heating Degree Days48.1 (Base 65)
Averaged from 50 records on February 11, 2013
WEATHER CONDITIONS BREAKOUT
WIND DIRECTION BREAKOUT
WEATHER BY HOUR - FEBRUARY 11, 2013
[ °C ]   °F
Local TimeTemperatureDewpointHumidityBarometerVisibilityWind DirectionWind SpeedGust SpeedPrecipitationEventsConditions
12:32 AM0.0 °F0.0 °F3.0 miSE (140°)17.3 mph23.0 mph
12:43 AM0.0 °F0.0 °F1.0 miSE (130°)16.1 mph23.0 mph
1:00 AM24.0 °F20.0 °F77 %29.82 in1.0 miSE (130°)17.3 mphSnowLight Snow
1:00 AM23.0 °F19.4 °F86 %29.82 in1.0 miSE (130°)17.3 mphSnowLight Snow
1:33 AM0.0 °F0.0 °F2.0 miSE (130°)17.3 mph24.2 mph
1:57 AM0.0 °F0.0 °F3.0 miESE (120°)12.7 mph21.9 mph
2:00 AM24.8 °F21.2 °F86 %29.75 in3.0 miESE (120°)13.8 mph21.9 mphSnowLight Snow
2:54 AM0.0 °F0.0 °F3.0 miSE (130°)17.3 mph
3:00 AM24.8 °F23.0 °F93 %29.71 in3.0 miSE (130°)15.0 mph20.7 mphSnowLight Snow
4:00 AM26.6 °F24.8 °F93 %29.64 in3.0 miSE (130°)16.1 mph21.9 mphSnowLight Snow
4:07 AM0.0 °F0.0 °F1.0 miSE (130°)17.3 mph
4:31 AM0.0 °F0.0 °F3.0 miSE (140°)16.1 mph
5:00 AM28.4 °F26.6 °F93 %29.61 in3.0 miSE (140°)18.4 mph24.2 mphSnowLight Snow
5:23 AM0.0 °F0.0 °F1.0 miSSE (150°)17.3 mphLight Freezing Drizzle
6:00 AM28.4 °F26.6 °F93 %29.57 in0.8 miSSE (150°)15.0 mphLight Freezing Drizzle
6:54 AM0.0 °F0.0 °F0.0 mi12.7 (2013°)Light Freezing Drizzle150
7:00 AM30.0 °F28.0 °F88 %29.54 in1.0 miSSE (150°)12.7 mphRainLight Freezing Drizzle
7:00 AM30.2 °F28.4 °F93 %29.54 in0.6 miSSE (150°)12.7 mphLight Freezing Drizzle
7:48 AM0.0 °F0.0 °F0.0 mi15.0 (2013°)Light Ice Pellets150
8:00 AM32.0 °F30.2 °F93 %29.53 in0.8 miSSE (150°)15.0 mphLight Ice Pellets
8:25 AM0.0 °F0.0 °F0.0 mi16.1 (2013°)0.00 inLight Freezing Rain150
8:44 AM0.0 °F0.0 °F0.0 mi12.7 (2013°)Light Freezing Drizzle150
9:00 AM32.0 °F30.2 °F93 %29.51 in0.6 miSSE (150°)13.8 mphLight Freezing Drizzle
9:23 AM0.0 °F0.0 °F0.0 mi12.7 (2013°)0.00 inLight Freezing Rain140
10:00 AM32.0 °F30.2 °F93 %29.47 in0.5 miSSE (150°)16.1 mphSnowSnow
10:07 AM0.0 °F0.0 °F0.0 mi13.8 (2013°)140
10:30 AM0.0 °F0.0 °F1.2 miSE (140°)13.8 mph
11:00 AM32.0 °F30.2 °F93 %29.44 in0.8 miSE (140°)12.7 mphSnowLight Snow
12:00 PM32.0 °F30.2 °F93 %29.42 in0.8 miSSE (150°)12.7 mphSnowLight Snow
12:32 PM0.0 °F0.0 °F0.0 mi11.5 (2013°)150
12:36 PM0.0 °F0.0 °F0.0 mi10.4 (2013°)0.00 inIce Pellets150
12:46 PM0.0 °F0.0 °F0.0 mi9.2 (2013°)0.00 inLight Small Hail Showers150
1:00 PM32.0 °F32.0 °F100 %29.40 in0.4 miSSE (160°)8.1 mphFog-SnowLight Snow Showers
1:00 PM33.0 °F31.0 °F90 %29.40 in0.0 miSSE (160°)8.1 mphSnowLight Snow Showers
1:48 PM0.0 °F0.0 °F0.0 mi11.5 (2013°)180
2:00 PM33.8 °F32.0 °F93 %29.38 in1.0 miSouth (180°)13.8 mphSnowLight Snow
2:17 PM0.0 °F0.0 °F2.5 miSSW (200°)18.4 mphRainLight Rain
2:28 PM0.0 °F0.0 °F5.0 miSSW (210°)17.3 mph25.3 mphRainLight Rain
3:00 PM33.8 °F32.0 °F93 %29.38 in3.0 miSW (220°)15.0 mphSnowLight Snow
4:00 PM33.8 °F30.2 °F87 %29.39 in2.0 miSW (230°)13.8 mphSnowLight Snow
4:28 PM0.0 °F0.0 °F10.0 miSW (220°)15.0 mph23.0 mph
5:43 PM0.0 °F0.0 °F2.5 miSW (220°)13.8 mph
6:00 PM32.0 °F30.2 °F93 %29.41 in4.0 miSW (220°)15.0 mph20.7 mphSnowLight Snow
7:00 PM32.0 °F28.4 °F87 %29.43 in8.0 miSW (230°)12.7 mphSnowLight Snow
7:00 PM31.0 °F29.0 °F89 %29.43 in7.0 miWSW (240°)12.7 mphSnowLight Snow
8:00 PM32.0 °F28.4 °F87 %29.44 in10.0 miWSW (240°)10.4 mphSnowLight Snow
9:00 PM32.0 °F28.4 °F87 %29.45 in6.0 miSW (230°)8.1 mphSnowLight Snow
10:00 PM32.0 °F28.4 °F87 %29.46 in8.0 miWSW (240°)10.4 mphSnowLight Snow
10:35 PM0.0 °F0.0 °F15.0 miWSW (250°)9.2 mph
11:00 PM32.0 °F28.4 °F87 %29.46 in15.0 miWSW (250°)10.4 mphSnowLight Snow
Hourly data recorded from CYSB, located miles away from Sudbury, Ontario







STORIES FROM OUR PARTNERS